Flag for Germany Weather past 2 weeks in Hückelhoven, North Rhine-Westphalia, Germany

Now
54 °F

Drizzle. Mostly cloudy.


Feels Like: 49 °F
Forecast: 43 / 54 °F
Wind: 18 mph from West

Location: Geilenkirchen Airport

Current Time: Dec 18, 2014 at 4:02:30 PM

Latest Report: Dec 18, 2014 at 2:50 PM


Visibility: 2 mi

Pressure: 29.89 "Hg

Humidity: 94%

Dew point: 52 °F

Location of HückelhovenLocation

Historic Weather in Hückelhoven — Graph

°F

Hückelhoven temperature yesterday

Maximum temperature yesterday: 50 °F (at 5:50 PM)
Minimum temperature yesterday: 39 °F (at 12:50 AM)
Average temperature yesterday: 45 °F

Past Weeks' High & Low Weather Summary

 TemperatureHumidityPressure
High54 °F (Dec 18, 10:50 AM)100% (Dec 4, 9:50 PM)30.39 "Hg (Dec 4, 9:50 PM)
Low30 °F (Dec 3, 5:50 PM)66% (Dec 10, 2:50 AM)29.42 "Hg (Dec 12, 2:50 PM)
Average41 °F87%29.96 "Hg
* Reported Dec 3 2:50 PM — Dec 18 2:50 PM, Hückelhoven, Weather by CustomWeather, © 2014

Note: Actual official high and low records may vary slightly from our data, if they occured in-between our weather recording intervals... More about our weather records

Advertising

Hückelhoven weather history for previous 24 hours

 ConditionsComfort  
Time TempWeatherWind HumidityBarometerVisibility
2:50 PM
Dec 18
54 °FDrizzle. Mostly cloudy.18 mph94%29.89 "Hg2 mi
1:50 PM54 °FDrizzle. Mostly cloudy.15 mph94%29.86 "Hg3 mi
12:50 PM54 °FDrizzle. Cloudy.15 mph94%29.86 "Hg4 mi
11:50 AM54 °FBroken clouds.16 mph94%29.89 "HgN/A
10:50 AM54 °FDrizzle. Broken clouds.14 mph94%29.89 "Hg4 mi
9:50 AM52 °FDrizzle. Partly sunny.12 mph100%29.86 "HgN/A
8:50 AM52 °FDrizzle. Fog.12 mph100%29.86 "Hg2 mi
7:50 AM52 °FPassing clouds.10 mph100%29.83 "Hg4 mi
6:50 AM52 °FPassing clouds.9 mph94%29.83 "Hg4 mi
5:50 AM52 °FDrizzle. Fog.10 mph94%29.83 "Hg2 mi
4:50 AM52 °FDrizzle. Fog.9 mph94%29.83 "Hg3 mi
3:50 AM52 °FMostly cloudy.8 mph94%29.83 "HgN/A
2:50 AM52 °FPassing clouds.8 mph94%29.83 "Hg4 mi
1:50 AM52 °FOvercast.8 mph94%29.86 "Hg4 mi
12:50 AM50 °FDrizzle. Fog.8 mph100%29.86 "Hg2 mi
11:50 PM
Dec 17
50 °FDrizzle. Fog.8 mph100%29.83 "Hg3 mi
10:50 PM50 °FFog.9 mph100%29.83 "Hg3 mi
9:50 PM50 °FDrizzle. Fog.12 mph100%29.80 "Hg2 mi
8:50 PM50 °FDrizzle. Fog.12 mph100%29.80 "Hg3 mi
7:50 PM50 °FDrizzle. Fog.12 mph100%29.77 "Hg1 mi
6:50 PM50 °FDrizzle. Fog.9 mph100%29.74 "Hg2 mi
5:50 PM50 °FDrizzle. Fog.9 mph94%29.74 "Hg2 mi
4:50 PM48 °FDrizzle. Fog.10 mph100%29.71 "Hg2 mi
Weather by CustomWeather, © 2014

See weather overviewHow to use our weather pages